Midpoint, URN, title, Start Time, Stop Time,start_sol_number,stop_sol_number,start_local_mean_solar_time, stop_local_mean_solar_time, start_local_true_solar_time, stop_local_true_solar_time, start_solar_longitude, stop_solar_longitude, Ls, Mars Year, File Size (Mb)
2021-02-19T21:37:24.47Z,urn:nasa:pds:mars2020_meda:data_calibrated_env:we__0001___________cal_tirs________________p,Mars 2020 MEDA Thermal Infrared Sensor Calibrated Data,2021-02-19T21:36:39.970Z,2021-02-19T21:38:08.971Z,1,1,00001M16:06:15.112,00001M16:07:41.731,0001 15:28:45,0001 15:30:11,6.15,6.15,6.06,36,0.028
2021-02-20T22:37:28.68Z,urn:nasa:pds:mars2020_meda:data_calibrated_env:we__0002___________cal_tirs________________p,Mars 2020 MEDA Thermal Infrared Sensor Calibrated Data,2021-02-20T22:36:36.680Z,2021-02-20T22:39:20.681Z,2,2,00002M16:26:03.896,00002M16:28:43.509,0002 15:48:54,0002 15:51:33,6.659,6.66,6.55,36,0.055
2021-02-27T22:04:35.93Z,urn:nasa:pds:mars2020_meda:data_calibrated_env:we__0009___________cal_tirs________________p,Mars 2020 MEDA Thermal Infrared Sensor Calibrated Data,2021-02-27T22:03:21.432Z,2021-02-27T22:04:50.432Z,9,9,00009M11:24:00.184,00009M11:25:26.803,0009 10:49:07,0009 10:50:34,10.054,10.055,9.96,36,0.028
2021-03-01T02:08:23.73Z,urn:nasa:pds:mars2020_meda:data_calibrated_env:we__0010___________cal_tirs________________p,Mars 2020 MEDA Thermal Infrared Sensor Calibrated Data,2021-03-01T01:56:00.223Z,2021-03-01T02:21:47.235Z,10,10,00010M14:31:53.805,00010M14:56:59.426,0010 13:57:24,0010 14:22:30,10.616,10.625,10.44,36,0.293
2021-03-05T14:16:09.79Z,urn:nasa:pds:mars2020_meda:data_calibrated_env:we__0014___________cal_tirs________________p,Mars 2020 MEDA Thermal Infrared Sensor Calibrated Data,2021-03-05T14:14:15.296Z,2021-03-05T14:18:04.298Z,14,14,00014M23:56:16.962,00014M23:59:59.837,0014 23:23:19,0014 23:27:02,12.79,12.792,12.66,36,0.043
2021-03-06T02:08:14.13Z,urn:nasa:pds:mars2020_meda:data_calibrated_env:we__0015___________cal_tirs________________p,Mars 2020 MEDA Thermal Infrared Sensor Calibrated Data,2021-03-05T14:18:05.298Z,2021-03-06T13:59:22.970Z,15,15,00015M00:00:00.810,00015M23:03:16.818,0014 23:27:03,0015 22:30:39,12.792,13.265,12.85,36,2.86
2021-03-07T03:18:35.84Z,urn:nasa:pds:mars2020_meda:data_calibrated_env:we__0016___________cal_tirs________________p,Mars 2020 MEDA Thermal Infrared Sensor Calibrated Data,2021-03-06T14:59:56.999Z,2021-03-07T15:37:14.698Z,16,16,00016M00:02:13.616,00016M23:59:59.751,0015 23:29:37,0016 23:27:44,13.285,13.777,13.47,36,5.43
2021-03-08T03:27:25.53Z,urn:nasa:pds:mars2020_meda:data_calibrated_env:we__0017___________cal_tirs________________p,Mars 2020 MEDA Thermal Infrared Sensor Calibrated Data,2021-03-07T15:37:15.698Z,2021-03-08T15:18:35.370Z,17,17,00017M00:00:00.724,00017M23:03:18.679,0016 23:27:45,0017 22:31:24,13.777,14.249,13.95,36,4.903
2021-03-09T04:37:16.24Z,urn:nasa:pds:mars2020_meda:data_calibrated_env:we__0018___________cal_tirs________________p,Mars 2020 MEDA Thermal Infrared Sensor Calibrated Data,2021-03-08T16:19:07.399Z,2021-03-09T16:56:25.097Z,18,18,00018M00:02:13.530,00018M23:59:59.665,0017 23:30:20,0018 23:28:27,14.269,14.76,14.43,36,5.926
2021-03-09T20:34:33.20Z,urn:nasa:pds:mars2020_meda:data_calibrated_env:we__0019___________cal_tirs________________p,Mars 2020 MEDA Thermal Infrared Sensor Calibrated Data,2021-03-09T16:56:26.097Z,2021-03-10T00:12:40.304Z,19,19,00019M00:00:00.638,00019M07:04:34.535,0018 23:28:28,0019 06:33:08,14.76,14.904,14.67,36,1.692
2021-03-11T11:22:22.30Z,urn:nasa:pds:mars2020_meda:data_calibrated_env:we__0020___________cal_tirs________________p,Mars 2020 MEDA Thermal Infrared Sensor Calibrated Data,2021-03-11T05:26:03.133Z,2021-03-11T17:19:41.471Z,20,20,00020M11:31:02.589,00020M23:05:35.291,0020 11:00:02,0020 22:34:45,15.485,15.721,15.53,36,2.829
2021-03-12T06:35:24.34Z,urn:nasa:pds:mars2020_meda:data_calibrated_env:we__0021___________cal_tirs________________p,Mars 2020 MEDA Thermal Infrared Sensor Calibrated Data,2021-03-11T18:15:38.497Z,2021-03-12T18:55:10.197Z,21,21,00021M00:00:02.498,00021M23:59:59.049,0020 23:29:13,0021 23:29:31,15.739,16.228,15.86,36,5.899
2021-03-13T00:37:07.36Z,urn:nasa:pds:mars2020_meda:data_calibrated_env:we__0022___________cal_tirs________________p,Mars 2020 MEDA Thermal Infrared Sensor Calibrated Data,2021-03-12T18:55:11.197Z,2021-03-13T06:19:03.520Z,22,22,00022M00:00:00.022,00022M11:05:34.497,0021 23:29:32,0022 10:35:16,16.228,16.454,16.19,36,2.594
2021-03-19T16:54:27.40Z,urn:nasa:pds:mars2020_meda:data_calibrated_env:we__0028___________cal_tirs________________p,Mars 2020 MEDA Thermal Infrared Sensor Calibrated Data,2021-03-19T11:13:33.746Z,2021-03-19T22:36:21.069Z,28,28,00028M12:01:01.788,00028M23:05:33.001,0028 11:32:55,0028 22:37:36,19.391,19.614,19.41,36,2.633
2021-03-20T11:52:36.44Z,urn:nasa:pds:mars2020_meda:data_calibrated_env:we__0029___________cal_tirs________________p,Mars 2020 MEDA Thermal Infrared Sensor Calibrated Data,2021-03-19T23:33:20.096Z,2021-03-21T00:11:52.795Z,29,29,00029M00:01:00.549,00029M23:59:59.678,0028 23:33:05,0029 23:32:26,19.633,20.116,19.79,36,5.598
2021-03-21T12:03:43.13Z,urn:nasa:pds:mars2020_meda:data_calibrated_env:we__0030___________cal_tirs________________p,Mars 2020 MEDA Thermal Infrared Sensor Calibrated Data,2021-03-21T00:11:53.795Z,2021-03-21T23:55:32.469Z,30,30,00030M00:00:00.651,00030M23:05:33.888,0029 23:32:27,0030 22:38:21,20.116,20.581,20.26,36,5.239
2021-03-22T13:11:16.84Z,urn:nasa:pds:mars2020_meda:data_calibrated_env:we__0031___________cal_tirs________________p,Mars 2020 MEDA Thermal Infrared Sensor Calibrated Data,2021-03-22T00:52:30.496Z,2021-03-23T01:31:03.195Z,31,31,00031M00:01:00.463,00031M23:59:59.592,0030 23:33:49,0031 23:33:10,20.599,21.082,20.73,36,5.536
2021-03-23T13:22:17.52Z,urn:nasa:pds:mars2020_meda:data_calibrated_env:we__0032___________cal_tirs________________p,Mars 2020 MEDA Thermal Infrared Sensor Calibrated Data,2021-03-23T01:31:04.195Z,2021-03-24T01:14:30.868Z,32,32,00032M00:00:00.565,00032M23:05:22.123,0031 23:33:11,0032 22:38:54,21.082,21.545,21.2,36,5.571
2021-03-24T14:30:26.74Z,urn:nasa:pds:mars2020_meda:data_calibrated_env:we__0033___________cal_tirs________________p,Mars 2020 MEDA Thermal Infrared Sensor Calibrated Data,2021-03-24T02:10:39.895Z,2021-03-25T02:50:13.594Z,33,33,00033M00:00:01.009,00033M23:59:59.506,0032 23:33:33,0033 23:33:54,21.563,22.045,21.67,36,6.055
2021-03-25T14:41:27.92Z,urn:nasa:pds:mars2020_meda:data_calibrated_env:we__0034___________cal_tirs________________p,Mars 2020 MEDA Thermal Infrared Sensor Calibrated Data,2021-03-25T02:50:14.595Z,2021-03-26T02:33:41.268Z,34,34,00034M00:00:00.479,00034M23:05:22.037,0033 23:33:55,0034 22:39:38,22.045,22.507,22.14,36,5.668
2021-03-26T15:49:37.14Z,urn:nasa:pds:mars2020_meda:data_calibrated_env:we__0035___________cal_tirs________________p,Mars 2020 MEDA Thermal Infrared Sensor Calibrated Data,2021-03-26T03:29:50.294Z,2021-03-27T04:09:23.994Z,35,35,00035M00:00:00.923,00035M23:59:59.420,0034 23:34:17,0035 23:34:38,22.525,23.005,22.7,36,6.516
2021-03-27T16:01:14.33Z,urn:nasa:pds:mars2020_meda:data_calibrated_env:we__0036___________cal_tirs________________p,Mars 2020 MEDA Thermal Infrared Sensor Calibrated Data,2021-03-27T04:09:24.994Z,2021-03-28T03:53:03.667Z,36,36,00036M00:00:00.393,00036M23:05:33.630,0035 23:34:39,0036 22:40:33,23.005,23.466,23.16,36,6.024
2021-03-28T17:08:17.54Z,urn:nasa:pds:mars2020_meda:data_calibrated_env:we__0037___________cal_tirs________________p,Mars 2020 MEDA Thermal Infrared Sensor Calibrated Data,2021-03-28T04:49:00.694Z,2021-03-29T05:28:34.394Z,37,37,00037M00:00:00.837,00037M23:59:59.334,0036 23:35:01,0037 23:35:22,23.485,23.963,23.63,36,6.512
2021-03-29T17:20:18.73Z,urn:nasa:pds:mars2020_meda:data_calibrated_env:we__0038___________cal_tirs________________p,Mars 2020 MEDA Thermal Infrared Sensor Calibrated Data,2021-03-29T05:28:35.394Z,2021-03-30T05:12:02.067Z,38,38,00038M00:00:00.307,00038M23:05:21.865,0037 23:35:23,0038 22:41:06,23.963,24.424,24.1,36,6.157
2021-03-30T18:27:27.94Z,urn:nasa:pds:mars2020_meda:data_calibrated_env:we__0039___________cal_tirs________________p,Mars 2020 MEDA Thermal Infrared Sensor Calibrated Data,2021-03-30T06:08:11.094Z,2021-03-31T06:47:44.793Z,39,39,00039M00:00:00.751,00039M23:59:59.248,0038 23:35:45,0039 23:36:06,24.442,24.919,24.56,36,6.641
2021-03-31T18:39:29.13Z,urn:nasa:pds:mars2020_meda:data_calibrated_env:we__0040___________cal_tirs________________p,Mars 2020 MEDA Thermal Infrared Sensor Calibrated Data,2021-03-31T06:47:45.793Z,2021-04-01T06:31:12.467Z,40,40,00040M00:00:00.221,00040M23:05:21.779,0039 23:36:07,0040 22:41:50,24.919,25.378,25.03,36,2.825
2021-04-01T19:47:38.84Z,urn:nasa:pds:mars2020_meda:data_calibrated_env:we__0041___________cal_tirs________________p,Mars 2020 MEDA Thermal Infrared Sensor Calibrated Data,2021-04-01T07:28:22.494Z,2021-04-02T08:06:55.193Z,41,41,00041M00:01:00.033,00041M23:59:59.162,0040 23:37:29,0041 23:36:50,25.397,25.873,25.49,36,6.352
2021-04-02T19:55:32.30Z,urn:nasa:pds:mars2020_meda:data_calibrated_env:we__0042___________cal_tirs________________p,Mars 2020 MEDA Thermal Infrared Sensor Calibrated Data,2021-04-02T08:06:56.193Z,2021-04-03T07:43:07.863Z,42,42,00042M00:00:00.135,00042M22:58:18.329,0041 23:36:51,0042 22:35:31,25.873,26.329,25.95,36,3.996
2021-04-03T21:06:18.74Z,urn:nasa:pds:mars2020_meda:data_calibrated_env:we__0043___________cal_tirs________________p,Mars 2020 MEDA Thermal Infrared Sensor Calibrated Data,2021-04-03T08:46:31.893Z,2021-04-04T09:26:05.593Z,43,43,00043M00:00:00.579,00043M23:59:59.076,0042 23:37:14,0043 23:37:34,26.349,26.824,26.42,36,4.227
2021-04-04T21:17:19.92Z,urn:nasa:pds:mars2020_meda:data_calibrated_env:we__0044___________cal_tirs________________p,Mars 2020 MEDA Thermal Infrared Sensor Calibrated Data,2021-04-04T09:26:06.593Z,2021-04-05T09:09:33.266Z,44,44,00044M00:00:00.049,00044M23:05:21.607,0043 23:37:35,0044 22:43:18,26.824,27.281,26.97,36,6.125
2021-04-05T22:26:30.14Z,urn:nasa:pds:mars2020_meda:data_calibrated_env:we__0045___________cal_tirs________________p,Mars 2020 MEDA Thermal Infrared Sensor Calibrated Data,2021-04-05T10:06:43.293Z,2021-04-06T10:45:16.992Z,45,45,00045M00:00:59.861,00045M23:59:59.963,0044 23:38:57,0045 23:38:19,27.299,27.773,27.43,36,6.438
2021-04-06T22:37:30.82Z,urn:nasa:pds:mars2020_meda:data_calibrated_env:we__0046___________cal_tirs________________p,Mars 2020 MEDA Thermal Infrared Sensor Calibrated Data,2021-04-06T10:45:17.992Z,2021-04-07T10:28:43.665Z,46,46,00046M00:00:00.937,00046M23:05:21.521,0045 23:38:20,0046 22:44:02,27.773,28.229,27.9,36,5.746
2021-04-07T23:45:40.54Z,urn:nasa:pds:mars2020_meda:data_calibrated_env:we__0047___________cal_tirs________________p,Mars 2020 MEDA Thermal Infrared Sensor Calibrated Data,2021-04-07T11:25:53.693Z,2021-04-08T12:04:27.392Z,47,47,00047M00:00:59.775,00047M23:59:59.877,0046 23:39:41,0047 23:39:03,28.248,28.72,28.36,36,6.661
2021-04-09T00:24:15.24Z,urn:nasa:pds:mars2020_meda:data_calibrated_env:we__0048___________cal_tirs________________p,Mars 2020 MEDA Thermal Infrared Sensor Calibrated Data,2021-04-08T12:04:28.392Z,2021-04-09T12:44:02.092Z,48,48,00048M00:00:00.851,00048M23:59:59.348,0047 23:39:04,0048 23:39:25,28.72,29.193,28.82,36,5.938
2021-04-10T01:03:20.44Z,urn:nasa:pds:mars2020_meda:data_calibrated_env:we__0049___________cal_tirs________________p,Mars 2020 MEDA Thermal Infrared Sensor Calibrated Data,2021-04-09T12:44:03.092Z,2021-04-10T13:23:37.791Z,49,49,00049M00:00:00.321,00049M23:59:59.791,0048 23:39:26,0049 23:39:47,29.193,29.665,29.28,36,6.192
2021-04-11T01:15:21.13Z,urn:nasa:pds:mars2020_meda:data_calibrated_env:we__0050___________cal_tirs________________p,Mars 2020 MEDA Thermal Infrared Sensor Calibrated Data,2021-04-10T13:23:38.791Z,2021-04-11T13:07:03.465Z,50,50,00050M00:00:00.765,00050M23:05:20.376,0049 23:39:48,0050 22:45:29,29.665,30.119,29.74,36,6.11
2021-04-12T02:23:30.84Z,urn:nasa:pds:mars2020_meda:data_calibrated_env:we__0051___________cal_tirs________________p,Mars 2020 MEDA Thermal Infrared Sensor Calibrated Data,2021-04-11T14:04:13.492Z,2021-04-12T14:42:48.191Z,51,51,00051M00:00:58.630,00051M23:59:59.705,0050 23:41:08,0051 23:40:31,30.137,30.608,30.19,36,6.457
2021-04-13T03:02:36.40Z,urn:nasa:pds:mars2020_meda:data_calibrated_env:we__0052___________cal_tirs________________p,Mars 2020 MEDA Thermal Infrared Sensor Calibrated Data,2021-04-12T14:42:49.191Z,2021-04-13T15:22:22.891Z,52,52,00052M00:00:00.679,00052M23:59:59.176,0051 23:40:32,0052 23:40:52,30.608,31.079,30.79,36,5.809
2021-04-14T03:42:41.24Z,urn:nasa:pds:mars2020_meda:data_calibrated_env:we__0053___________cal_tirs________________p,Mars 2020 MEDA Thermal Infrared Sensor Calibrated Data,2021-04-13T15:22:23.891Z,2021-04-14T16:01:58.591Z,53,53,00053M00:00:00.149,00053M23:59:59.619,0052 23:40:53,0053 23:41:15,31.079,31.549,31.25,36,6.336
2021-04-15T03:53:41.93Z,urn:nasa:pds:mars2020_meda:data_calibrated_env:we__0054___________cal_tirs________________p,Mars 2020 MEDA Thermal Infrared Sensor Calibrated Data,2021-04-14T16:01:59.591Z,2021-04-15T15:45:24.264Z,54,54,00054M00:00:00.593,00054M23:05:20.204,0053 23:41:16,0054 22:46:56,31.549,32.001,31.71,36,5.922
2021-04-16T05:01:21.64Z,urn:nasa:pds:mars2020_meda:data_calibrated_env:we__0055___________cal_tirs________________p,Mars 2020 MEDA Thermal Infrared Sensor Calibrated Data,2021-04-15T16:42:34.291Z,2021-04-16T17:21:08.990Z,55,55,00055M00:00:58.458,00055M23:59:59.533,0054 23:42:35,0055 23:41:58,32.019,32.488,32.16,36,6.461
2021-04-17T05:40:27.34Z,urn:nasa:pds:mars2020_meda:data_calibrated_env:we__0056___________cal_tirs________________p,Mars 2020 MEDA Thermal Infrared Sensor Calibrated Data,2021-04-16T17:21:09.990Z,2021-04-17T18:00:44.690Z,56,56,00056M00:00:00.507,00056M23:59:59.977,0055 23:41:59,0056 23:42:21,32.488,32.956,32.62,36,5.946
2021-04-18T06:20:32.54Z,urn:nasa:pds:mars2020_meda:data_calibrated_env:we__0057___________cal_tirs________________p,Mars 2020 MEDA Thermal Infrared Sensor Calibrated Data,2021-04-17T18:00:45.690Z,2021-04-18T18:40:19.390Z,57,57,00057M00:00:00.950,00057M23:59:59.447,0056 23:42:21,0057 23:42:42,32.956,33.425,33.07,36,6.414
2021-04-19T07:00:37.74Z,urn:nasa:pds:mars2020_meda:data_calibrated_env:we__0058___________cal_tirs________________p,Mars 2020 MEDA Thermal Infrared Sensor Calibrated Data,2021-04-18T18:40:20.390Z,2021-04-19T19:19:55.090Z,58,58,00058M00:00:00.420,00058M23:59:59.891,0057 23:42:43,0058 23:43:04,33.425,33.892,33.53,36,6.227
2021-04-20T07:39:42.94Z,urn:nasa:pds:mars2020_meda:data_calibrated_env:we__0059___________cal_tirs________________p,Mars 2020 MEDA Thermal Infrared Sensor Calibrated Data,2021-04-19T19:19:56.090Z,2021-04-20T19:59:29.790Z,59,59,00059M00:00:00.864,00059M23:59:59.361,0058 23:43:05,0059 23:43:25,33.892,34.36,33.99,36,6.504
2021-04-21T08:19:18.13Z,urn:nasa:pds:mars2020_meda:data_calibrated_env:we__0060___________cal_tirs________________p,Mars 2020 MEDA Thermal Infrared Sensor Calibrated Data,2021-04-20T19:59:30.790Z,2021-04-21T20:39:05.489Z,60,60,00060M00:00:00.334,00060M23:59:59.805,0059 23:43:26,0060 23:43:47,34.36,34.826,34.44,36,6.559
2021-04-22T08:58:23.33Z,urn:nasa:pds:mars2020_meda:data_calibrated_env:we__0061___________cal_tirs________________p,Mars 2020 MEDA Thermal Infrared Sensor Calibrated Data,2021-04-21T20:39:06.489Z,2021-04-22T21:18:40.189Z,61,61,00061M00:00:00.778,00061M23:59:59.275,0060 23:43:48,0061 23:44:08,34.827,35.293,34.89,36,6.477
2021-04-23T09:10:29.52Z,urn:nasa:pds:mars2020_meda:data_calibrated_env:we__0062___________cal_tirs________________p,Mars 2020 MEDA Thermal Infrared Sensor Calibrated Data,2021-04-22T21:18:41.189Z,2021-04-23T21:02:17.863Z,62,62,00062M00:00:00.248,00062M23:05:31.539,0061 23:44:09,0062 22:50:01,35.293,35.741,35.48,36,6.106
2021-04-24T10:18:33.23Z,urn:nasa:pds:mars2020_meda:data_calibrated_env:we__0063___________cal_tirs________________p,Mars 2020 MEDA Thermal Infrared Sensor Calibrated Data,2021-04-23T21:59:15.889Z,2021-04-24T22:37:50.589Z,63,63,00063M00:00:58.114,00063M23:59:59.189,0062 23:45:28,0063 23:44:51,35.759,36.224,35.94,36,6.727
2021-04-25T10:57:38.93Z,urn:nasa:pds:mars2020_meda:data_calibrated_env:we__0064___________cal_tirs________________p,Mars 2020 MEDA Thermal Infrared Sensor Calibrated Data,2021-04-24T22:37:51.589Z,2021-04-25T23:17:26.289Z,64,64,00064M00:00:00.162,00064M23:59:59.633,0063 23:44:52,0064 23:45:12,36.224,36.689,36.39,36,6.36
2021-04-26T11:37:14.13Z,urn:nasa:pds:mars2020_meda:data_calibrated_env:we__0065___________cal_tirs________________p,Mars 2020 MEDA Thermal Infrared Sensor Calibrated Data,2021-04-25T23:17:27.289Z,2021-04-26T23:57:00.988Z,65,65,00065M00:00:00.606,00065M23:59:59.103,0064 23:45:13,0065 23:45:33,36.689,37.154,36.84,36,6.68
2021-04-27T12:16:19.33Z,urn:nasa:pds:mars2020_meda:data_calibrated_env:we__0066___________cal_tirs________________p,Mars 2020 MEDA Thermal Infrared Sensor Calibrated Data,2021-04-26T23:57:01.988Z,2021-04-28T00:36:36.688Z,66,66,00066M00:00:00.076,00066M23:59:59.547,0065 23:45:34,0066 23:45:55,37.154,37.618,37.29,36,6.098
2021-04-28T12:56:25.30Z,urn:nasa:pds:mars2020_meda:data_calibrated_env:we__0067___________cal_tirs________________p,Mars 2020 MEDA Thermal Infrared Sensor Calibrated Data,2021-04-28T00:36:37.688Z,2021-04-29T01:16:12.388Z,67,67,00067M00:00:00.520,00067M23:59:59.990,0066 23:45:56,0067 23:46:16,37.618,38.082,37.75,36,6.735
2021-04-29T13:36:30.23Z,urn:nasa:pds:mars2020_meda:data_calibrated_env:we__0068___________cal_tirs________________p,Mars 2020 MEDA Thermal Infrared Sensor Calibrated Data,2021-04-29T01:16:13.388Z,2021-04-30T01:55:47.088Z,68,68,00068M00:00:00.964,00068M23:59:59.461,0067 23:46:17,0068 23:46:37,38.082,38.545,38.2,36,6.18
2021-04-30T14:15:35.43Z,urn:nasa:pds:mars2020_meda:data_calibrated_env:we__0069___________cal_tirs________________p,Mars 2020 MEDA Thermal Infrared Sensor Calibrated Data,2021-04-30T01:55:48.088Z,2021-05-01T02:35:22.788Z,69,69,00069M00:00:00.434,00069M23:59:59.904,0068 23:46:38,0069 23:46:58,38.545,39.008,38.65,36,6.579
2021-05-01T14:55:40.63Z,urn:nasa:pds:mars2020_meda:data_calibrated_env:we__0070___________cal_tirs________________p,Mars 2020 MEDA Thermal Infrared Sensor Calibrated Data,2021-05-01T02:35:23.788Z,2021-05-02T03:14:57.487Z,70,70,00070M00:00:00.878,00070M23:59:59.375,0069 23:46:59,0070 23:47:19,39.008,39.471,39.19,36,6.336
2021-05-02T15:34:45.83Z,urn:nasa:pds:mars2020_meda:data_calibrated_env:we__0071___________cal_tirs________________p,Mars 2020 MEDA Thermal Infrared Sensor Calibrated Data,2021-05-02T03:14:58.487Z,2021-05-03T03:54:33.187Z,71,71,00071M00:00:00.348,00071M23:59:59.818,0070 23:47:20,0071 23:47:40,39.471,39.933,39.64,36,6.118
2021-05-03T15:46:45.52Z,urn:nasa:pds:mars2020_meda:data_calibrated_env:we__0072___________cal_tirs________________p,Mars 2020 MEDA Thermal Infrared Sensor Calibrated Data,2021-05-03T03:54:34.187Z,2021-05-04T03:37:56.861Z,72,72,00072M00:00:00.791,00072M23:05:18.456,0071 23:47:41,0072 22:53:19,39.933,40.377,40.09,36,6.348
2021-05-04T16:54:25.23Z,urn:nasa:pds:mars2020_meda:data_calibrated_env:we__0073___________cal_tirs________________p,Mars 2020 MEDA Thermal Infrared Sensor Calibrated Data,2021-05-04T04:35:06.888Z,2021-05-05T05:13:43.587Z,73,73,00073M00:00:56.710,00073M23:59:59.732,0072 23:48:58,0073 23:48:21,40.395,40.856,40.54,36,6.106
2021-05-05T17:33:31.43Z,urn:nasa:pds:mars2020_meda:data_calibrated_env:we__0074___________cal_tirs________________p,Mars 2020 MEDA Thermal Infrared Sensor Calibrated Data,2021-05-05T05:13:44.587Z,2021-05-06T05:53:18.287Z,74,74,00074M00:00:00.705,00074M23:59:59.203,0073 23:48:22,0074 23:48:42,40.856,41.317,40.98,36,5.516
2021-05-06T18:13:36.63Z,urn:nasa:pds:mars2020_meda:data_calibrated_env:we__0075___________cal_tirs________________p,Mars 2020 MEDA Thermal Infrared Sensor Calibrated Data,2021-05-06T05:53:19.287Z,2021-05-07T06:32:53.987Z,75,75,00075M00:00:00.176,00075M23:59:59.646,0074 23:48:43,0075 23:49:03,41.317,41.777,41.43,36,6.692
2021-05-07T18:24:39.82Z,urn:nasa:pds:mars2020_meda:data_calibrated_env:we__0076___________cal_tirs________________p,Mars 2020 MEDA Thermal Infrared Sensor Calibrated Data,2021-05-07T06:32:54.987Z,2021-05-08T06:16:24.660Z,76,76,00076M00:00:00.619,00076M23:05:25.097,0075 23:49:03,0076 22:54:48,41.777,42.22,41.88,36,5.813
2021-05-08T19:32:19.30Z,urn:nasa:pds:mars2020_meda:data_calibrated_env:we__0077___________cal_tirs________________p,Mars 2020 MEDA Thermal Infrared Sensor Calibrated Data,2021-05-08T07:12:33.686Z,2021-05-09T07:52:04.386Z,77,77,00077M00:00:03.983,00077M23:59:59.560,0076 23:49:27,0077 23:49:43,42.238,42.697,42.33,36,5.235
2021-05-09T19:43:20.72Z,urn:nasa:pds:mars2020_meda:data_calibrated_env:we__0078___________cal_tirs________________p,Mars 2020 MEDA Thermal Infrared Sensor Calibrated Data,2021-05-09T07:52:05.386Z,2021-05-10T07:35:36.059Z,78,78,00078M00:00:00.533,00078M23:05:25.984,0077 23:49:44,0078 22:55:29,42.697,43.14,42.78,36,5.239
2021-05-10T20:52:30.43Z,urn:nasa:pds:mars2020_meda:data_calibrated_env:we__0079___________cal_tirs________________p,Mars 2020 MEDA Thermal Infrared Sensor Calibrated Data,2021-05-10T08:32:46.086Z,2021-05-11T09:11:14.786Z,79,79,00079M00:01:04.238,00079M23:59:59.474,0078 23:51:08,0079 23:50:24,43.157,43.616,43.22,36,5.227
2021-05-11T21:03:37.12Z,urn:nasa:pds:mars2020_meda:data_calibrated_env:we__0080___________cal_tirs________________p,Mars 2020 MEDA Thermal Infrared Sensor Calibrated Data,2021-05-11T09:11:15.786Z,2021-05-12T08:54:58.459Z,80,80,00080M00:00:00.447,00080M23:05:37.577,0079 23:50:25,0080 22:56:21,43.616,44.058,43.67,36,5.254
2021-05-12T22:11:40.83Z,urn:nasa:pds:mars2020_meda:data_calibrated_env:we__0081___________cal_tirs________________p,Mars 2020 MEDA Thermal Infrared Sensor Calibrated Data,2021-05-12T09:51:56.486Z,2021-05-13T10:30:25.185Z,81,81,00081M00:01:04.152,00081M23:59:59.388,0080 23:51:48,0081 23:51:04,44.075,44.533,44.21,36,5.422
2021-05-13T22:22:17.52Z,urn:nasa:pds:mars2020_meda:data_calibrated_env:we__0082___________cal_tirs________________p,Mars 2020 MEDA Thermal Infrared Sensor Calibrated Data,2021-05-13T10:30:26.185Z,2021-05-14T10:14:08.859Z,82,82,00082M00:00:00.361,00082M23:05:37.491,0081 23:51:05,0082 22:57:01,44.533,44.974,44.65,36,5.239
2021-05-14T23:30:21.23Z,urn:nasa:pds:mars2020_meda:data_calibrated_env:we__0083___________cal_tirs________________p,Mars 2020 MEDA Thermal Infrared Sensor Calibrated Data,2021-05-14T11:11:06.886Z,2021-05-15T11:49:35.585Z,83,83,00083M00:01:04.066,00083M23:59:59.302,0082 23:52:28,0083 23:51:43,44.992,45.449,45.1,36,5.391
2021-05-15T23:41:27.92Z,urn:nasa:pds:mars2020_meda:data_calibrated_env:we__0084___________cal_tirs________________p,Mars 2020 MEDA Thermal Infrared Sensor Calibrated Data,2021-05-15T11:49:36.585Z,2021-05-16T11:33:19.258Z,84,84,00084M00:00:00.275,00084M23:05:37.405,0083 23:51:44,0084 22:57:40,45.449,45.89,45.54,36,5.235
2021-05-17T00:49:31.63Z,urn:nasa:pds:mars2020_meda:data_calibrated_env:we__0085___________cal_tirs________________p,Mars 2020 MEDA Thermal Infrared Sensor Calibrated Data,2021-05-16T12:30:17.285Z,2021-05-17T13:08:45.985Z,85,85,00085M00:01:03.980,00085M23:59:59.216,0084 23:53:08,0085 23:52:23,45.907,46.364,45.99,36,5.219
2021-05-18T01:00:38.32Z,urn:nasa:pds:mars2020_meda:data_calibrated_env:we__0086___________cal_tirs________________p,Mars 2020 MEDA Thermal Infrared Sensor Calibrated Data,2021-05-17T13:08:46.985Z,2021-05-18T12:52:29.658Z,86,86,00086M00:00:00.189,00086M23:05:37.319,0085 23:52:24,0086 22:58:19,46.364,46.804,46.43,36,5.313
2021-05-19T02:08:42.30Z,urn:nasa:pds:mars2020_meda:data_calibrated_env:we__0087___________cal_tirs________________p,Mars 2020 MEDA Thermal Infrared Sensor Calibrated Data,2021-05-18T13:49:27.685Z,2021-05-19T14:27:56.384Z,87,87,00087M00:01:03.894,00087M23:59:59.130,0086 23:53:47,0087 23:53:01,46.821,47.277,46.88,36,4.602